• In Moldova, Republic
  • List of Countries
  • For 7 days
  • Water Temperature
  • Satellite Maps
  • Weather Map
  • Weather Widgets
  • user-avatar
    Login

    Hourly Weather Graz

    Today, 19 February, Sunday

    Time Temperature Precipitation Wind Pressure Humidity
    00:00 +1°C° 0 mm 1 mps 730 mmHg 96%
    01:00 -1°C° 0 mm 1 mps 729 mmHg 96%
    02:00 -1°C° 0 mm 1 mps 729 mmHg 96%
    03:00 -2°C° 0 mm 1 mps 729 mmHg 96%
    04:00 -3°C° 0 mm 0 mps 729 mmHg 95%
    05:00 -3°C° 0 mm 0 mps 729 mmHg 95%
    06:00 -3°C° 0 mm 0 mps 729 mmHg 95%
    07:00 -3°C° 0 mm 0 mps 729 mmHg 95%
    08:00 -1°C° 0 mm 0 mps 729 mmHg 91%
    09:00 +1°C° 0 mm 0 mps 729 mmHg 86%
    10:00 +4°C° 0 mm 0 mps 730 mmHg 82%
    11:00 +4°C° 0 mm 0 mps 729 mmHg 80%
    12:00 +6°C° 0 mm 1 mps 729 mmHg 78%
    13:00 +7°C° 0 mm 1 mps 729 mmHg 76%
    14:00 +7°C° 0 mm 1 mps 728 mmHg 78%
    15:00 +6°C° 0 mm 1 mps 728 mmHg 80%
    16:00 +6°C° 0 mm 1 mps 728 mmHg 82%
    17:00 +4°C° 0 mm 1 mps 727 mmHg 86%
    18:00 +2°C° 0 mm 1 mps 727 mmHg 90%
    19:00 0°C° 0 mm 1 mps 727 mmHg 93%
    20:00 0°C° 0 mm 1 mps 727 mmHg 94%
    21:00 0°C° 0 mm 1 mps 727 mmHg 94%
    22:00 0°C° 0 mm 1 mps 727 mmHg 94%
    23:00 +1°C° 0 mm 1 mps 727 mmHg 94%

    Tomorrow, 20 February, Monday

    Time Temperature Precipitation Wind Pressure Humidity
    00:00 +1°C° 0 mm 1 mps 727 mmHg 93%
    01:00 +1°C° 0 mm 1 mps 728 mmHg 92%
    02:00 +1°C° 0 mm 1 mps 727 mmHg 92%
    03:00 +2°C° 0 mm 1 mps 727 mmHg 91%
    04:00 +2°C° 0 mm 1 mps 727 mmHg 90%
    05:00 +2°C° 0 mm 1 mps 727 mmHg 90%
    06:00 +2°C° 0 mm 1 mps 727 mmHg 90%
    07:00 +2°C° 0 mm 1 mps 727 mmHg 90%
    08:00 +3°C° 0 mm 1 mps 728 mmHg 86%
    09:00 +5°C° 0 mm 1 mps 728 mmHg 81%
    10:00 +6°C° 0 mm 1 mps 728 mmHg 77%
    11:00 +7°C° 0 mm 1 mps 728 mmHg 74%
    12:00 +8°C° 0 mm 1 mps 728 mmHg 71%
    13:00 +9°C° 0 mm 1 mps 728 mmHg 68%
    14:00 +8°C° 0 mm 1 mps 727 mmHg 71%
    15:00 +8°C° 0 mm 1 mps 727 mmHg 74%
    16:00 +7°C° 0 mm 1 mps 726 mmHg 78%
    17:00 +6°C° 0 mm 1 mps 726 mmHg 81%
    18:00 +4°C° 0 mm 1 mps 726 mmHg 85%
    19:00 +2°C° 0 mm 1 mps 726 mmHg 89%
    20:00 +2°C° 0 mm 1 mps 726 mmHg 89%
    21:00 +2°C° 0 mm 1 mps 726 mmHg 89%
    22:00 +2°C° 0 mm 1 mps 725 mmHg 89%
    23:00 +2°C° 0 mm 1 mps 725 mmHg 89%

    Day after tomorrow, 21 February, Tuesday

    Time Temperature Precipitation Wind Pressure Humidity
    00:00 +2°C° 0 mm 1 mps 725 mmHg 89%
    01:00 +2°C° 0 mm 1 mps 725 mmHg 89%
    02:00 +1°C° 0 mm 2 mps 724 mmHg 88%
    03:00 +1°C° 0 mm 2 mps 724 mmHg 87%
    04:00 +2°C° 0 mm 2 mps 723 mmHg 85%
    05:00 +2°C° 0.1 mm 2 mps 723 mmHg 86%
    06:00 +2°C° 0.1 mm 2 mps 723 mmHg 86%
    07:00 +3°C° 0.1 mm 2 mps 723 mmHg 86%
    08:00 +4°C° 0.1 mm 2 mps 723 mmHg 84%
    09:00 +5°C° 0.1 mm 2 mps 723 mmHg 82%
    10:00 +6°C° 0.1 mm 2 mps 723 mmHg 80%
    11:00 +7°C° 0.1 mm 2 mps 723 mmHg 79%
    12:00 +8°C° 0.1 mm 2 mps 723 mmHg 78%
    13:00 +9°C° 0.1 mm 2 mps 723 mmHg 77%
    14:00 +10°C° 0.2 mm 1 mps 723 mmHg 80%
    15:00 +9°C° 0.2 mm 1 mps 722 mmHg 83%
    16:00 +9°C° 0.2 mm 1 mps 722 mmHg 86%
    17:00 +8°C° 0.2 mm 1 mps 723 mmHg 88%
    18:00 +7°C° 0.2 mm 1 mps 723 mmHg 90%
    19:00 +6°C° 0.2 mm 1 mps 723 mmHg 92%
    20:00 +6°C° 0.2 mm 1 mps 723 mmHg 93%
    21:00 +6°C° 0.2 mm 1 mps 723 mmHg 93%
    22:00 +6°C° 0.2 mm 1 mps 724 mmHg 93%
    23:00 +6°C° 0.2 mm 1 mps 723 mmHg 93%

    22 February, Wednesday

    Time Temperature Precipitation Wind Pressure Humidity
    00:00 +6°C° 0.2 mm 1 mps 723 mmHg 94%
    01:00 +5°C° 0.2 mm 1 mps 723 mmHg 94%
    02:00 +5°C° 0.2 mm 1 mps 723 mmHg 94%
    03:00 +5°C° 0.2 mm 1 mps 723 mmHg 94%
    04:00 +5°C° 0.2 mm 1 mps 722 mmHg 94%
    05:00 +5°C° 0.1 mm 1 mps 722 mmHg 94%
    06:00 +5°C° 0.1 mm 1 mps 722 mmHg 94%
    07:00 +5°C° 0.1 mm 1 mps 722 mmHg 94%
    08:00 +6°C° 0 mm 1 mps 722 mmHg 90%
    09:00 +8°C° 0 mm 1 mps 722 mmHg 86%
    10:00 +9°C° 0 mm 1 mps 722 mmHg 82%
    11:00 +10°C° 0 mm 1 mps 722 mmHg 80%
    12:00 +10°C° 0 mm 2 mps 721 mmHg 78%
    13:00 +12°C° 0 mm 2 mps 721 mmHg 77%
    14:00 +12°C° 0 mm 2 mps 721 mmHg 79%
    15:00 +10°C° 0 mm 2 mps 720 mmHg 82%
    16:00 +10°C° 0 mm 2 mps 720 mmHg 84%
    17:00 +8°C° 0 mm 2 mps 720 mmHg 87%
    18:00 +7°C° 0 mm 2 mps 720 mmHg 91%
    19:00 +6°C° 0 mm 2 mps 720 mmHg 94%
    20:00 +5°C° 0 mm 2 mps 720 mmHg 94%
    21:00 +5°C° 0 mm 2 mps 720 mmHg 95%
    22:00 +4°C° 0 mm 2 mps 720 mmHg 95%
    23:00 +4°C° 0 mm 2 mps 720 mmHg 95%

    23 February, Thursday

    Time Temperature Precipitation Wind Pressure Humidity
    00:00 +4°C° 0 mm 2 mps 720 mmHg 95%
    01:00 +4°C° 0 mm 2 mps 719 mmHg 95%
    02:00 +4°C° 0 mm 2 mps 719 mmHg 95%
    03:00 +4°C° 0 mm 2 mps 719 mmHg 94%
    04:00 +4°C° 0 mm 2 mps 719 mmHg 94%
    05:00 +4°C° 0 mm 2 mps 719 mmHg 94%
    06:00 +4°C° 0 mm 2 mps 720 mmHg 94%
    07:00 +4°C° 0 mm 2 mps 720 mmHg 94%
    08:00 +5°C° 0 mm 2 mps 720 mmHg 91%
    09:00 +7°C° 0 mm 1 mps 721 mmHg 88%
    10:00 +8°C° 0 mm 1 mps 721 mmHg 85%
    11:00 +8°C° 0 mm 2 mps 721 mmHg 82%
    12:00 +9°C° 0 mm 2 mps 721 mmHg 80%
    13:00 +10°C° 0 mm 2 mps 720 mmHg 78%
    14:00 +10°C° 0 mm 2 mps 720 mmHg 80%
    15:00 +10°C° 0 mm 2 mps 719 mmHg 82%
    16:00 +10°C° 0 mm 2 mps 719 mmHg 85%
    17:00 +8°C° 0 mm 2 mps 718 mmHg 88%
    18:00 +7°C° 0 mm 2 mps 718 mmHg 91%
    19:00 +6°C° 0 mm 2 mps 718 mmHg 94%
    20:00 +5°C° 0 mm 2 mps 717 mmHg 95%
    21:00 +5°C° 0 mm 2 mps 717 mmHg 95%
    22:00 +5°C° 0 mm 2 mps 717 mmHg 95%
    23:00 +5°C° 0 mm 2 mps 716 mmHg 95%

    24 February, Friday

    Time Temperature Precipitation Wind Pressure Humidity
    00:00 +5°C° 0 mm 2 mps 716 mmHg 95%
    01:00 +5°C° 0 mm 2 mps 715 mmHg 95%
    02:00 +5°C° 0 mm 2 mps 714 mmHg 95%
    03:00 +5°C° 0 mm 2 mps 714 mmHg 95%
    04:00 +5°C° 0 mm 2 mps 713 mmHg 94%
    05:00 +5°C° 0.1 mm 2 mps 713 mmHg 94%
    06:00 +5°C° 0.1 mm 2 mps 713 mmHg 94%
    07:00 +5°C° 0.1 mm 2 mps 714 mmHg 94%
    08:00 +5°C° 0.4 mm 2 mps 714 mmHg 90%
    09:00 +5°C° 0.4 mm 3 mps 715 mmHg 87%
    10:00 +7°C° 0.4 mm 3 mps 716 mmHg 83%
    11:00 +7°C° 0.4 mm 3 mps 717 mmHg 80%
    12:00 +7°C° 0.4 mm 3 mps 717 mmHg 77%
    13:00 +7°C° 0.4 mm 3 mps 718 mmHg 74%
    14:00 +5°C° 0.1 mm 3 mps 718 mmHg 73%
    15:00 +5°C° 0.1 mm 4 mps 719 mmHg 73%
    16:00 +5°C° 0.1 mm 4 mps 720 mmHg 72%
    17:00 +3°C° 0 mm 3 mps 721 mmHg 76%
    18:00 +3°C° 0 mm 2 mps 722 mmHg 79%
    19:00 +3°C° 0 mm 1 mps 723 mmHg 83%
    20:00 +2°C° 0 mm 1 mps 724 mmHg 83%
    21:00 +2°C° 0 mm 1 mps 725 mmHg 83%
    22:00 +2°C° 0 mm 1 mps 726 mmHg 83%
    23:00 +2°C° 0.1 mm 1 mps 726 mmHg 84%
    Show more